Weather History for Point Pleasant, WV

Change the Weather History Date:

Friday, January 17, 2014

  Actual Average (KHTS) Record (KHTS)
Temperature  
Mean Temperature 34 °F 34 °F  
Max Temperature 44 °F 42 °F 74 °F (1932)
Min Temperature 24 °F 25 °F -14 °F (1982)
Degree Days  
Heating Degree Days 31 32  
Month to date heating degree days 533  
Since 1 July heating degree days 2288  
Cooling Degree Days 0 0  
Month to date cooling degree days 0  
Year to date cooling degree days 0  
Moisture  
Dew Point 29 °F    
Average Humidity 78    
Maximum Humidity 93    
Minimum Humidity 59    
Precipitation  
Precipitation 0.00 in 0.10 in 1.03 in (1978)
Month to date precipitation 1.62  
Year to date precipitation 1.62  
Snow  
Snow 0.00 in - - ()
Month to date snowfall  
Since 1 September snowfall  
Snow Depth -    
Sea Level Pressure  
Sea Level Pressure 29.90 in    
Wind  
Wind Speed 4 mph (WSW)    
Max Wind Speed 17 mph    
Max Gust Speed 21 mph    
Visibility 9 miles    
Events Rain , Snow    
T = Trace of Precipitation, MM = Missing Value Source: NWS Daily Summary

Daily Weather History Graph

Daily Weather History Graph

Search for Another Location

Airport:

Trip Planner

Search our weather history database for the weather conditions in past years. The results will help you decide how hot, cold, wet, or windy it might be!

Date:

Astronomy

Jan. 17, 2014 Rise Set
Actual Time 7:44 AM EST 5:32 PM EST
Civil Twilight 7:15 AM EST 6:01 PM EST
Nautical Twilight 6:42 AM EST 6:34 PM EST
Astronomical Twilight 6:11 AM EST 7:06 PM EST
Moon 7:16 PM EST (1/17) 8:13 AM EST (1/17)
Length of Visible Light 10h 46m
Length of Day
9h 48m
Full, 98% of the Moon is Illuminated
Jan 17
Full
Jan 24
Last Quarter
Jan 30
New
Feb 6
First Quarter
Feb 14
Full

Hourly Weather History & Observations

Time (EST) Temp. Windchill Dew Point Humidity Pressure Visibility Wind Dir Wind Speed Gust Speed Precip Events Conditions
12:15 AM 35.6 °F 29.9 °F 32.0 °F 87% 29.88 in 10.0 mi South 6.9 mph - N/A   Overcast
12:35 AM 35.6 °F 31.7 °F 32.0 °F 87% 29.87 in 10.0 mi South 4.6 mph - N/A   Overcast
12:55 AM 37.4 °F - 32.0 °F 81% 29.87 in 10.0 mi Calm Calm - N/A   Overcast
1:15 AM 35.6 °F 32.8 °F 32.0 °F 87% 29.87 in 10.0 mi South 3.5 mph - N/A   Mostly Cloudy
1:35 AM 35.6 °F - 32.0 °F 87% 29.86 in 10.0 mi Calm Calm - N/A   Overcast
1:55 AM 35.6 °F - 32.0 °F 87% 29.85 in 10.0 mi Calm Calm - N/A   Mostly Cloudy
2:15 AM 35.6 °F - 32.0 °F 87% 29.86 in 10.0 mi Calm Calm - N/A   Mostly Cloudy
2:35 AM 35.6 °F - 32.0 °F 87% 29.85 in 10.0 mi Calm Calm - N/A   Overcast
2:55 AM 35.6 °F - 32.0 °F 87% 29.85 in 10.0 mi Calm Calm - N/A   Mostly Cloudy
3:15 AM 35.6 °F - 32.0 °F 87% 29.85 in 10.0 mi Calm Calm - N/A   Mostly Cloudy
3:35 AM 35.6 °F - 32.0 °F 87% 29.85 in 10.0 mi Calm Calm - N/A   Overcast
3:55 AM 33.8 °F - 32.0 °F 93% 29.85 in 10.0 mi Calm Calm - N/A   Scattered Clouds
4:15 AM 33.8 °F - 32.0 °F 93% 29.85 in 10.0 mi Calm Calm - N/A   Mostly Cloudy
4:35 AM 33.8 °F - 32.0 °F 93% 29.84 in 10.0 mi Calm Calm - N/A   Overcast
4:55 AM 35.6 °F - 32.0 °F 87% 29.84 in 10.0 mi Calm Calm - N/A   Overcast
5:15 AM 35.6 °F - 30.2 °F 81% 29.84 in 10.0 mi Calm Calm - N/A   Overcast
5:35 AM 35.6 °F 32.8 °F 30.2 °F 81% 29.84 in 10.0 mi SSW 3.5 mph - N/A   Overcast
5:55 AM 37.4 °F 34.9 °F 32.0 °F 81% 29.84 in 10.0 mi SSW 3.5 mph - N/A   Overcast
6:15 AM 37.4 °F 34.9 °F 32.0 °F 81% 29.84 in 10.0 mi SW 3.5 mph - N/A   Overcast
6:35 AM 37.4 °F 33.8 °F 32.0 °F 81% 29.84 in 10.0 mi South 4.6 mph - N/A   Overcast
6:55 AM 37.4 °F - 32.0 °F 81% 29.85 in 10.0 mi Calm Calm - N/A   Overcast
7:15 AM 37.4 °F 33.8 °F 32.0 °F 81% 29.86 in 10.0 mi SSW 4.6 mph - N/A   Overcast
7:35 AM 37.4 °F 34.9 °F 32.0 °F 81% 29.86 in 10.0 mi SSW 3.5 mph - N/A   Overcast
7:55 AM 37.4 °F 34.9 °F 32.0 °F 81% 29.85 in 10.0 mi SSE 3.5 mph - N/A   Overcast
8:15 AM 37.4 °F - 32.0 °F 81% 29.85 in 10.0 mi Calm Calm - N/A   Scattered Clouds
8:35 AM 37.4 °F 34.9 °F 32.0 °F 81% 29.85 in 10.0 mi SSE 3.5 mph - N/A   Clear
8:55 AM 37.4 °F - 32.0 °F 81% 29.87 in 10.0 mi Calm Calm - N/A   Scattered Clouds
9:15 AM 41.0 °F 37.1 °F 32.0 °F 70% 29.87 in 10.0 mi South 5.8 mph - N/A   Mostly Cloudy
9:35 AM 41.0 °F 36.4 °F 32.0 °F 70% 29.87 in 10.0 mi South 6.9 mph - N/A   Overcast
9:55 AM 41.0 °F 38.0 °F 32.0 °F 70% 29.87 in 10.0 mi South 4.6 mph - N/A   Overcast
10:15 AM 42.8 °F 40.1 °F 32.0 °F 66% 29.85 in 10.0 mi South 4.6 mph - N/A   Mostly Cloudy
10:35 AM 44.6 °F 40.7 °F 32.0 °F 61% 29.84 in 10.0 mi SE 6.9 mph - N/A   Scattered Clouds
10:55 AM 44.6 °F 40.2 °F 32.0 °F 61% 29.84 in 10.0 mi South 8.1 mph - N/A   Scattered Clouds
11:15 AM 42.8 °F 34.8 °F 32.0 °F 66% 29.87 in 7.0 mi SW 17.3 mph - N/A Rain Light Rain
11:35 AM 42.8 °F 39.3 °F 35.6 °F 76% 29.84 in 10.0 mi SW 5.8 mph - N/A   Overcast
11:55 AM 42.8 °F 41.1 °F 35.6 °F 76% 29.83 in 10.0 mi WSW 3.5 mph - N/A   Overcast
12:15 PM 42.8 °F 40.1 °F 35.6 °F 76% 29.82 in 10.0 mi West 4.6 mph - N/A   Overcast
12:35 PM 41.0 °F - 35.6 °F 81% 29.81 in 10.0 mi Calm Calm - N/A Rain Light Rain
12:55 PM 42.8 °F 37.5 °F 35.6 °F 76% 29.80 in 10.0 mi WSW 9.2 mph - N/A Rain Light Rain
1:15 PM 41.0 °F 37.1 °F 33.8 °F 76% 29.80 in 3.0 mi WSW 5.8 mph - N/A Rain Light Rain
1:35 PM 39.2 °F 35.0 °F 35.6 °F 87% 29.80 in 5.0 mi WSW 5.8 mph - N/A Rain Light Rain
1:55 PM 37.4 °F 32.8 °F 35.6 °F 93% 29.80 in 2.0 mi WSW 5.8 mph - N/A Snow Light Snow
2:15 PM 41.0 °F 35.2 °F 35.6 °F 81% 29.80 in 10.0 mi SW 9.2 mph - N/A   Overcast
2:35 PM 39.2 °F 33.0 °F 33.8 °F 81% 29.82 in 2.5 mi WSW 9.2 mph 16.1 mph N/A Rain Light Rain
2:55 PM 37.4 °F 30.3 °F 33.8 °F 87% 29.82 in 2.5 mi WSW 10.4 mph - N/A Snow Light Snow
3:15 PM 37.4 °F 32.8 °F 33.8 °F 87% 29.84 in 1.0 mi West 5.8 mph - N/A Snow Light Snow
3:35 PM 37.4 °F 33.8 °F 33.8 °F 87% 29.84 in 7.0 mi West 4.6 mph - N/A Snow Light Snow
3:55 PM 37.4 °F 33.8 °F 33.8 °F 87% 29.86 in 10.0 mi West 4.6 mph - N/A Snow Light Snow
4:15 PM 37.4 °F 30.3 °F 32.0 °F 81% 29.87 in 3.0 mi WNW 10.4 mph 19.6 mph N/A Snow Light Snow
4:35 PM 35.6 °F 28.6 °F 32.0 °F 87% 29.90 in 7.0 mi WNW 9.2 mph - N/A   Overcast
4:55 PM 33.8 °F 29.6 °F 28.4 °F 81% 29.92 in 10.0 mi West 4.6 mph - N/A   Overcast
5:15 PM 33.8 °F 27.7 °F 28.4 °F 81% 29.94 in 2.5 mi WNW 6.9 mph 19.6 mph N/A Snow Light Snow
5:35 PM 32.0 °F 22.5 °F 28.4 °F 87% 29.96 in 1.2 mi WSW 12.7 mph 19.6 mph N/A Snow Light Snow
5:55 PM 32.0 °F 23.0 °F 26.6 °F 80% 29.97 in 10.0 mi WSW 11.5 mph - N/A   Overcast
6:15 PM 32.0 °F 24.8 °F 26.6 °F 80% 29.98 in 10.0 mi WSW 8.1 mph - N/A   Overcast
6:35 PM 32.0 °F 24.2 °F 24.8 °F 75% 29.99 in 10.0 mi WSW 9.2 mph - N/A Snow Light Snow
6:55 PM 32.0 °F 23.6 °F 23.0 °F 69% 30.00 in 10.0 mi WSW 10.4 mph 18.4 mph N/A   Overcast
7:15 PM 32.0 °F 26.4 °F 23.0 °F 69% 30.01 in 7.0 mi West 5.8 mph 19.6 mph N/A Snow Light Snow
7:35 PM 30.2 °F 21.3 °F 19.4 °F 64% 30.02 in 10.0 mi WSW 10.4 mph 16.1 mph N/A   Scattered Clouds
7:55 PM 30.2 °F 21.9 °F 19.4 °F 64% 30.02 in 10.0 mi West 9.2 mph 16.1 mph N/A   Mostly Cloudy
8:15 PM 28.4 °F 20.4 °F 19.4 °F 69% 30.03 in 7.0 mi West 8.1 mph 18.4 mph N/A Snow Light Snow
8:35 PM 28.4 °F 21.2 °F 19.4 °F 69% 30.04 in 7.0 mi West 6.9 mph - N/A Snow Light Snow
8:55 PM 28.4 °F 18.5 °F 19.4 °F 69% 30.05 in 4.0 mi WSW 11.5 mph 16.1 mph N/A Snow Light Snow
9:15 PM 26.6 °F 16.2 °F 17.6 °F 69% 30.05 in 10.0 mi WSW 11.5 mph 18.4 mph N/A   Overcast
9:35 PM 26.6 °F 18.2 °F 17.6 °F 69% 30.06 in 10.0 mi WSW 8.1 mph - N/A   Overcast
9:55 PM 26.6 °F 17.5 °F 15.8 °F 64% 30.07 in 10.0 mi West 9.2 mph 20.7 mph N/A   Overcast
10:15 PM 26.6 °F 18.2 °F 17.6 °F 69% 30.07 in 10.0 mi WSW 8.1 mph - N/A Snow Light Snow
10:35 PM 26.6 °F 20.0 °F 14.0 °F 59% 30.08 in 10.0 mi West 5.8 mph - N/A   Overcast
10:55 PM 26.6 °F 19.1 °F 14.0 °F 59% 30.08 in 10.0 mi West 6.9 mph - N/A   Overcast
11:15 PM 24.8 °F 19.1 °F 14.0 °F 64% 30.08 in 10.0 mi West 4.6 mph - N/A   Overcast
11:35 PM 24.8 °F 19.1 °F 14.0 °F 64% 30.08 in 10.0 mi West 4.6 mph - N/A   Overcast
11:55 PM 24.8 °F 19.1 °F 14.0 °F 64% 30.08 in 10.0 mi West 4.6 mph - N/A   Overcast